Regional Weather Roundup
Issued by NWS

Home | Current Version | Previous Version | Text Only | Print | Product List | Glossary Off
Versions: 1 2 3 4 5 6 7 8 9 10 11 12 13 14 15 16 17 18 19 20 21 22 23 24 25 26 27 28 29 30 31 32 33 34 35 36 37 38 39 40 41 42 43 44 45 46 47 48 49 50

597
ASUS45 KPSR 241510
RWRAZ

ARIZONA HOURLY REGIONAL WEATHER ROUNDUP
NATIONAL WEATHER SERVICE PHOENIX AZ
800 AM MST SUN SEP 24 2017

NOTE: FAIR INDICATES FEW OR NO CLOUDS BELOW 12,000 FEET WITH NO
SIGNIFICANT WEATHER AND/OR OBSTRUCTIONS TO VISIBILITY.

AZZ001>003-036-241600-
NORTHWEST ARIZONA

CITY           SKY/WX    TMP DP  RH WIND       PRES   REMARKS
BULLHEAD CITY  SUNNY     64  39  39 N14       29.94R
KINGMAN        SUNNY     51  33  50 E5        30.00R
$$

AZZ004>008-015-016-018-241600-
NORTH CENTRAL ARIZONA

CITY           SKY/WX    TMP DP  RH WIND       PRES   REMARKS
GRAND CANYON   SUNNY     39  27  62 W8        30.02R WCI  33
WILLIAMS       SUNNY     39  21  48 CALM      30.02R
PRESCOTT       SUNNY     47  24  40 N5        30.00R
FLAGSTAFF      SUNNY     42  19  39 VRB3      30.01R
PAYSON           N/A     50  23  34 CALM      29.98S
PAGE           SUNNY     51  32  48 N5        29.96R
$$

AZZ009>014-017-241600-
NORTHEAST ARIZONA

CITY           SKY/WX    TMP DP  RH WIND       PRES   REMARKS
WINSLOW        SUNNY     47  21  35 CALM      29.99R
SAINT JOHNS    SUNNY     49  23  36 S6        29.99S
WINDOW ROCK    SUNNY     43  23  45 CALM      30.02R
SHOW LOW       SUNNY     46  27  46 CALM      30.03R
$$

AZZ540-542>544-546-548-241600-
GREATER PHOENIX AREA

CITY           SKY/WX    TMP DP  RH WIND       PRES   REMARKS
PHOENIX        SUNNY     68  32  26 SW5       29.82R
BUCKEYE        SUNNY     66  23  19 N12       29.85R
GLENDALE       SUNNY     66  30  26 NW8       29.85R
LUKE AFB       SUNNY     69  31  25 NW9       29.82R
DEER VALLEY    SUNNY     67  25  20 CALM      29.83R
SCOTTSDALE     SUNNY     65  36  34 CALM      29.85R
MESA-GATEWAY     N/A     63  32  31 SE5       29.85R
CHANDLER       SUNNY     63  32  31 E3        29.83R
$$

AZZ539-553-241600-
SOUTHWEST MARICOPA COUNTY AND PINAL COUNTY

CITY           SKY/WX    TMP DP  RH WIND       PRES   REMARKS
CASA GRANDE    NOT AVBL
GILA BEND      FAIR      65  26  22 NE3       29.83R
$$

AZZ503-504-507>509-241600-
SOUTHEAST ARIZONA

CITY           SKY/WX    TMP DP  RH WIND       PRES   REMARKS
TUCSON         SUNNY     62  33  33 S3        29.89R
DAVIS-MONTHAN  SUNNY     63  30  29 S6        29.87S
RYAN FIELD     SUNNY     59  32  36 MISG      29.89R
NOGALES        SUNNY     58  39  49 CALM      29.91S
SIERRA VISTA   SUNNY     63  25  24 NE3       29.96R
DOUGLAS        SUNNY     61  30  31 CALM      29.93R
SAFFORD        SUNNY     59  23  25 S3        29.89R
$$

AZZ532-241600-
SOUTHWEST ARIZONA

CITY           SKY/WX    TMP DP  RH WIND       PRES   REMARKS
YUMA             N/A     73  30  20 N18       29.84R
$$

CAZ041-043-047-048-061-525>527-560>570-241600-
SOUTHERN CALIFORNIA

CITY           SKY/WX    TMP DP  RH WIND       PRES   REMARKS
DOWNTOWN L.A.  SUNNY     64  50  60 CALM      29.88R
L.A. AIRPORT   SUNNY     63  53  70 CALM      29.89R
SAN DIEGO      SUNNY     63  53  70 CALM      29.89R
BURBANK        SUNNY     58  44  60 CALM      29.89R
ONTARIO        SUNNY     59  51  75 CALM      29.89R
RIVERSIDE      SUNNY     57  50  77 E5        29.90R
PALM SPRINGS   SUNNY     70  37  29 W8        29.91R
EL CENTRO NAS  SUNNY     67  36  31 CALM      29.88R
IMPERIAL       SUNNY     71  37  28 N7        29.86R
BLYTHE         SUNNY     70  32  24 N17G25    29.89R
NEEDLES        SUNNY     68  37  32 N10       29.94R
$$

NVZ020-UTZ003-241600-
SOUTHERN NEVADA-UTAH

CITY           SKY/WX    TMP DP  RH WIND       PRES   REMARKS
LAS VEGAS      SUNNY     60  30  32 N8        29.99R
SALT LAKE CITY LGT RAIN  46  40  79 NW12      29.92R
$$

NMZ009-TXZ055-241600-
NEW MEXICO-WEST TEXAS

CITY           SKY/WX    TMP DP  RH WIND       PRES   REMARKS
ALBUQUERQUE    MOSUNNY   56  24  29 S3        29.99R
EL PASO        MOSUNNY   72  47  40 CALM      29.90S
$$


........................KEY........................
SKY/WX - SKY CONDITION/WEATHER
TMP    - TEMPERATURE IN FAHRENHEIT
DP     - DEW POINT IN FAHRENHEIT
RH     - RELATIVE HUMIDITY IN PERCENT
WIND   - DIRECTION AND SPEED IN MILES PER HOUR (MPH)
VRB    - VARIABLE WIND DIRECTION
PRES   - MEAN SEA LEVEL PRESSURE IN INCHES OF MERCURY
         F - FALLING PRESSURE   R - RISING PRESSURE
         S - STEADY PRESSURE
VSB    - VISIBILITY IN MILES
HX     - HEAT INDEX IN FAHRENHEIT
WCI    - WIND CHILL INDEX IN FAHRENHEIT
TC     - TEMPERATURE IN CELSIUS WHICH IS ALSO KNOWN AS
         TEMPERATURE IN CENTIGRADE
AFB    - AIR FORCE BASE
         LUKE AFB IS LUKE AIR FORCE BASE
         DAVIS-MONTHAN IS DAVIS-MONTHAN AIR FORCE BASE
NAS    - NAVAL AIR STATION
         EL CENTRO NAS IS EL CENTRO NAVAL AIR STATION
N/A    - NOT AVAILABLE





USA.gov is the U.S. government's official web portal to all federal, state and local government web resources and services.